Location: Zagreb
(45.8000°N, 16.0000°E)
Time: 11:14:01
(UTC+02:00)

Explorer 7 - Visible Passes

Search period start: 15 July 2024 00:00
Search period end: 25 July 2024 00:00
Orbit: 465 x 619 km, 50.3° (Epoch: 14 July)

Date Brightness Start Highest point End Pass type
(mag) Time Alt. Az. Time Alt. Az. Time Alt. Az.
15 Jul 7.7 02:42:17 35° SSE 02:42:59 37° SE 02:47:07 10° ENE visible
15 Jul 7.3 04:18:01 10° WSW 04:22:34 69° NNW 04:26:59 10° ENE visible
16 Jul 7.4 02:34:15 43° SSE 02:34:50 46° SE 02:39:09 10° ENE visible
16 Jul 7.4 04:10:01 10° W 04:14:32 62° NNW 04:18:56 10° ENE visible
17 Jul 7.1 02:26:08 52° S 02:26:41 56° SSE 02:31:07 10° ENE visible
17 Jul 7.6 04:01:59 10° W 04:06:29 56° NNW 04:10:51 10° ENE visible
18 Jul 7.0 02:17:57 60° SSW 02:18:32 67° SSE 02:23:02 10° ENE visible
18 Jul 7.7 03:53:58 10° W 03:58:25 52° NNW 04:02:47 10° ENE visible
19 Jul 9.5 00:34:15 11° E 00:34:15 11° E 00:34:30 10° E visible
19 Jul 6.9 02:09:42 63° SW 02:10:22 80° SSE 02:14:55 10° ENE visible
19 Jul 7.9 03:45:54 10° W 03:50:21 49° N 03:54:41 10° ENE visible
20 Jul 9.3 00:25:55 13° E 00:25:55 13° E 00:26:36 10° E visible
20 Jul 6.9 02:01:22 60° WSW 02:02:12 88° NNW 02:06:45 10° ENE visible
20 Jul 8.0 03:37:49 10° W 03:42:15 47° N 03:46:34 10° ENE visible
21 Jul 9.1 00:17:30 16° E 00:17:30 16° E 00:18:34 10° ENE visible
21 Jul 7.1 01:52:56 51° W 01:54:01 77° NNW 01:58:34 10° ENE visible
21 Jul 8.0 03:29:42 10° WNW 03:34:07 47° N 03:38:26 10° ENE visible
22 Jul 8.9 00:08:58 19° E 00:08:58 19° E 00:10:28 10° ENE visible
22 Jul 7.3 01:44:23 42° W 01:45:49 68° NNW 01:50:21 10° ENE visible
22 Jul 8.0 03:21:34 10° WNW 03:25:59 47° N 03:30:18 10° ENE visible
23 Jul 8.5 00:00:15 25° E 00:00:15 25° E 00:02:18 10° ENE visible
23 Jul 7.5 01:35:39 32° W 01:37:37 61° NNW 01:42:08 10° ENE visible
23 Jul 8.0 03:13:23 10° WNW 03:17:49 47° N 03:22:09 10° E visible
23 Jul 7.9 23:51:13 36° E 23:51:13 36° E 23:54:05 10° ENE visible
24 Jul 7.6 01:26:35 22° W 01:29:24 56° NNW 01:33:53 10° ENE visible
24 Jul 7.9 03:05:10 10° WNW 03:09:37 49° N 03:13:58 10° E visible
24 Jul 7.0 04:45:03 10° WNW 04:49:35 81° SSW 04:53:58 10° ESE visible
24 Jul 6.9 23:41:15 69° SSE 23:41:16 69° SSE 23:45:49 10° ENE visible
